Starlink 36120

operational
NORAD ID: 67016 Int'l Des: 2025-293 Owner: SPXS Country: US Constellation: starlink
LEOCIRCULAR

Über Starlink 36120

Beschreibung wird geladen...

Live-Position

3D-Globus wird geladen...

Nächste Überflüge

Höhenverlauf

Altitude vs Time

uPlot chart will show altitude changes over time

Zweizeiliger Elementsatz

1 67016C 25293P 25346.10187500 -.00221490 00000+0 -30527-3 0 3468
2 67016 69.9972 325.9326 0004650 268.3912 187.0817 16.06066302 13
Epoch: 12. Dez. 2025 • Age: 57 hours

Aktueller Status

Höhe 271.9 km
Geschwindigkeit 7.74 km/s
Subsatellitenpunkt -37.39°S, 59.87°W
Startdatum 10. Dez. 2025
Alter 3 days
Typ internet

Technische Details

Klassifizierung Payload
Masse 575.00 kg
Trockenmasse 530.00 kg
Gesamtmasse 575.00 kg
Länge 0.30 m
Durchmesser 4.10 m
Spannweite 29.00 m
Form Box + pan
Hersteller SPXS
Bus-Typ Starlink V2MO
Phasenstatus In Orbit
Besitzer/Staat SPXS/US

Große Konstellationen

Loading constellations...